Weather History for Truckee-Tahoe, CA

Change the Weather History Date:

Saturday, May 18, 2013

  Actual Average Record
Temperature  
Mean Temperature 42 °F -  
Max Temperature 60 °F 64 °F 83 °F (1954)
Min Temperature 24 °F 30 °F 10 °F (1974)
Degree Days  
Heating Degree Days 23    
Moisture  
Dew Point 29 °F    
Average Humidity 69    
Maximum Humidity 100    
Minimum Humidity 29    
Precipitation  
Precipitation 0.00 in - - ()
Sea Level Pressure  
Sea Level Pressure 30.19 in    
Wind  
Wind Speed 4 mph (SW)    
Max Wind Speed 18 mph    
Max Gust Speed 24 mph    
Visibility 10 miles    
Events      
Averages and records for this station are not official NWS values.
T = Trace of Precipitation, MM = Missing Value Source: NWS Daily Summary

Daily Weather History Graph

Daily Weather History Graph

Search for Another Location

Airport:

Trip Planner

Search our weather history database for the weather conditions in past years. The results will help you decide how hot, cold, wet, or windy it might be!

Date:

Astronomy

May. 18, 2013 Rise Set
Actual Time 5:44 AM PDT 8:10 PM PDT
Civil Twilight 5:13 AM PDT 8:41 PM PDT
Nautical Twilight 4:35 AM PDT 9:18 PM PDT
Astronomical Twilight 3:53 AM PDT 10:01 PM PDT
Moon 1:21 PM PDT (5/18) 1:36 AM PDT (5/18)
Length of Visible Light 15h 27m
Length of Day
14h 26m
First Quarter, 56% of the Moon is Illuminated
May 18
First Quarter
May 24
Full
May 31
Last Quarter
Jun 8
New
Jun 16
First Quarter

Hourly Weather History & Observations

Time (PDT) Temp. Windchill Dew Point Humidity Pressure Visibility Wind Dir Wind Speed Gust Speed Precip Events Conditions
12:15 AM 32.0 °F 28.7 °F 28.4 °F 87% 30.16 in 10.0 mi SE 3.5 mph - N/A   Clear
12:35 AM 32.0 °F 28.7 °F 26.6 °F 80% 30.16 in 10.0 mi East 3.5 mph - N/A   Clear
12:55 AM 32.0 °F 28.7 °F 24.8 °F 75% 30.16 in 10.0 mi SW 3.5 mph - N/A   Clear
1:15 AM 32.0 °F - 26.6 °F 80% 30.16 in 10.0 mi Calm Calm - N/A   Clear
1:35 AM 30.2 °F - 26.6 °F 86% 30.16 in 10.0 mi Calm Calm - N/A   Clear
1:55 AM 28.4 °F - 26.6 °F 93% 30.16 in 10.0 mi Calm Calm - N/A   Clear
2:15 AM 30.2 °F 26.7 °F 26.6 °F 86% 30.16 in 10.0 mi South 3.5 mph - N/A   Clear
2:35 AM 28.4 °F - 26.6 °F 93% 30.16 in 10.0 mi Calm Calm - N/A   Clear
2:55 AM 28.4 °F - 26.6 °F 93% 30.16 in 10.0 mi Calm Calm - N/A   Clear
3:15 AM 28.4 °F - 24.8 °F 86% 30.17 in 10.0 mi Calm Calm - N/A   Clear
3:35 AM 26.6 °F - 24.8 °F 93% 30.17 in 10.0 mi Calm Calm - N/A   Clear
3:55 AM 26.6 °F - 26.6 °F 100% 30.17 in 10.0 mi Calm Calm - N/A   Clear
4:15 AM 28.4 °F - 24.8 °F 86% 30.17 in 10.0 mi Calm Calm - N/A   Clear
4:35 AM 26.6 °F - 24.8 °F 93% 30.17 in 10.0 mi Calm Calm - N/A   Clear
4:55 AM 26.6 °F - 24.8 °F 93% 30.17 in 0.8 mi Calm Calm - N/A   Mist
5:15 AM 26.6 °F - 24.8 °F 93% 30.18 in 3.0 mi Calm Calm - N/A   Clear
5:35 AM 24.8 °F 20.5 °F 24.8 °F 100% 30.18 in 10.0 mi SSE 3.5 mph - N/A   Clear
5:55 AM 24.8 °F - 23.0 °F 93% 30.18 in 10.0 mi Calm Calm - N/A   Clear
6:15 AM 26.6 °F - 24.8 °F 93% 30.18 in 1.5 mi Calm Calm - N/A   Clear
6:35 AM 26.6 °F - 26.6 °F 100% 30.19 in 10.0 mi Calm Calm - N/A   Clear
6:45 AM 28.4 °F - 26.6 °F 93% 30.19 in 10.0 mi Calm Calm - N/A   Clear
7:55 AM 37.4 °F - 28.4 °F 70% 30.20 in 10.0 mi Calm Calm - N/A   Clear
8:55 AM 42.8 °F 41.1 °F 28.4 °F 57% 30.20 in 10.0 mi ESE 3.5 mph - N/A   Clear
9:55 AM 51.8 °F - 28.4 °F 41% 30.19 in 10.0 mi NNW 3.5 mph - N/A   Clear
10:55 AM 55.4 °F - 28.4 °F 36% 30.18 in 10.0 mi Calm Calm - N/A   Partly Cloudy
11:45 AM 57.2 °F - 26.6 °F 31% 30.18 in 10.0 mi West 9.2 mph - N/A   Mostly Cloudy
12:55 PM 60.8 °F - 28.4 °F 29% 30.17 in 10.0 mi WNW 16.1 mph 19.6 mph N/A   Mostly Cloudy
1:50 PM 59.0 °F - 32.0 °F 36% 30.18 in 10.0 mi West 18.4 mph 24.2 mph N/A   Mostly Cloudy
2:55 PM 59.0 °F - 32.0 °F 36% 30.18 in 10.0 mi West 15.0 mph 20.7 mph N/A   Mostly Cloudy
3:50 PM 59.0 °F - 32.0 °F 36% 30.18 in 10.0 mi West 5.8 mph 21.9 mph N/A   Mostly Cloudy
5:50 PM 55.4 °F - 32.0 °F 41% 30.18 in 10.0 mi WSW 11.5 mph - N/A   Mostly Cloudy
5:55 PM 55.4 °F - 32.0 °F 41% 30.18 in 10.0 mi West 15.0 mph - N/A   Mostly Cloudy
6:15 PM 55.4 °F - 32.0 °F 41% 30.19 in 10.0 mi West 12.7 mph 18.4 mph N/A   Scattered Clouds
6:35 PM 55.4 °F - 32.0 °F 41% 30.19 in 10.0 mi West 12.7 mph 19.6 mph N/A   Partly Cloudy
6:55 PM 53.6 °F - 30.2 °F 41% 30.20 in 10.0 mi West 13.8 mph - N/A   Partly Cloudy
7:15 PM 53.6 °F - 30.2 °F 41% 30.20 in 10.0 mi West 11.5 mph 18.4 mph N/A   Partly Cloudy
7:35 PM 53.6 °F - 30.2 °F 41% 30.20 in 10.0 mi West 9.2 mph - N/A   Clear
7:55 PM 50.0 °F - 30.2 °F 47% 30.20 in 10.0 mi West 8.1 mph 16.1 mph N/A   Clear
8:15 PM 46.4 °F 42.9 °F 32.0 °F 57% 30.20 in 10.0 mi WSW 6.9 mph - N/A   Clear
8:35 PM 48.2 °F - 32.0 °F 54% 30.20 in 10.0 mi West 8.1 mph - N/A   Clear
8:55 PM 46.4 °F 43.5 °F 32.0 °F 57% 30.21 in 10.0 mi West 5.8 mph - N/A   Clear
9:15 PM 46.4 °F - 32.0 °F 57% 30.22 in 10.0 mi Calm Calm - N/A   Clear
9:35 PM 41.0 °F 38.0 °F 32.0 °F 70% 30.22 in 10.0 mi SSE 4.6 mph - N/A   Clear
9:55 PM 41.0 °F 38.0 °F 32.0 °F 70% 30.23 in 10.0 mi SSE 4.6 mph - N/A   Clear
10:15 PM 39.2 °F 35.0 °F 32.0 °F 75% 30.23 in 10.0 mi ESE 5.8 mph - N/A   Clear
10:35 PM 39.2 °F 35.9 °F 32.0 °F 75% 30.23 in 10.0 mi SE 4.6 mph - N/A   Clear
10:55 PM 37.4 °F 33.8 °F 32.0 °F 81% 30.23 in 10.0 mi WSW 4.6 mph - N/A   Clear
11:15 PM 39.2 °F 35.9 °F 32.0 °F 75% 30.23 in 10.0 mi ESE 4.6 mph - N/A   Clear
11:35 PM 35.6 °F 31.7 °F 32.0 °F 87% 30.23 in 10.0 mi SSW 4.6 mph - N/A   Clear
11:55 PM 35.6 °F - 32.0 °F 87% 30.24 in 10.0 mi Calm Calm - N/A   Clear